User: anonymous   Login
Location: Unspecified
(0.0000°N, 0.0000°E)
Time: 06:16:50
(UTC+00:00)
Language:

MTI - Orbit

View from above orbital plane
View from above orbital plane
View from above satellite
View from above satellite

Ground track
Ground track

The orbit data is extracted from the following two-line orbital elements,

1 26102U 00014A   17119.95443080 +.00006825 +00000-0 +13862-3 0  9992
2 26102 097.5706 288.8759 0009345 087.3507 063.7828 15.46641845947069
Epoch (UTC): 29 April 2017 22:54:22
Eccentricity: 0.0009345
inclination: 97.5706°
perigee height: 420 km
apogee height: 433 km
right ascension of ascending node: 288.8759°
argument of perigee: 87.3507°
revolutions per day: 15.46641845
mean anomaly at epoch: 63.7828°
orbit number at epoch: 94706

The dashed part of the orbit path shows where the satellite is in the earth's shadow,  

DLR